Location: Praha
(50.0830°N, 14.4670°E)
Time: 12:11:53
(UTC+01:00)

ISS - Pass Details

Date: 26 January 2023
Orbit: 412 x 423 km, 51.6° (Epoch: 06 February)

Event Time Altitude Azimuth Distance (km) Brightness Sun altitude
Rises 18:25:01 0° 276° (W) 2,381 1.6 -15.8°
Reaches altitude 10° 18:27:08 10° 280° (W) 1,516 0.2 -16.2°
Maximum altitude 18:30:31 65° 3° (N) 471 -3.7 -16.7°
Enters shadow 18:31:22 45° 65° (ENE) 592 -3.5 -16.8°
